Wind_Speed
103 102 101 99 98 98 97 96 96 96 97 97 97 98 99 100 102 105 106 106 107 107 106 104 103 107 110 112 111 110 109 109 108 108 107 106 106 106 106 107 107 107 110 116 118 116 113 111 110 111 112 112 113 112 112 112 113 114 115 116 117 117 118
101 100 99 97 96 96 95 94 94 94 95 96 96 96 97 98 100 102 104 106 106 106 105 102 100 104 108 109 108 107 106 105 105 104 102 101 100 100 101 102 102 104 106 111 115 113 110 107 106 106 108 109 110 110 110 111 111 112 113 114 115 116 117
100 99 98 97 96 95 94 94 93 93 93 93 93 94 94 95 97 100 102 104 104 104 103 99 99 102 106 106 105 104 104 104 102 101 99 97 97 96 97 98 98 100 102 106 111 111 107 104 103 102 104 105 106 107 108 109 110 111 112 113 114 115 116
101 99 98 97 96 95 94 93 92 91 90 90 90 91 91 92 94 97 99 101 101 100 98 96 97 100 102 102 100 100 101 102 100 99 97 95 95 94 94 95 95 96 98 102 106 107 105 102 100 99 100 102 102 104 105 107 109 109 110 111 112 114 115
101 99 98 96 95 94 93 91 89 87 87 87 87 88 89 90 92 94 96 97 97 95 92 92 94 98 98 97 95 95 97 98 97 96 95 94 93 93 93 93 92 93 95 97 100 103 102 99 97 96 97 99 100 101 103 105 107 108 109 109 111 112 114
99 98 97 96 94 93 91 89 87 85 84 84 85 86 87 88 90 92 93 93 91 89 87 88 92 94 94 93 91 91 92 93 93 92 92 91 91 92 92 91 90 91 91 93 96 99 99 96 94 94 95 96 97 99 101 103 105 106 107 109 110 111 113
98 97 96 95 93 91 89 87 85 84 83 83 83 84 85 86 87 88 89 88 87 84 83 85 88 88 88 88 87 86 87 88 88 88 88 88 89 89 89 89 89 89 89 90 93 96 96 94 92 92 92 93 95 97 99 102 104 105 106 108 109 110 112
96 96 95 94 92 90 88 86 84 83 83 82 82 82 82 83 84 84 85 84 83 80 79 82 84 83 83 83 82 82 82 82 83 83 83 84 85 85 86 87 87 87 88 89 90 93 94 93 90 90 91 92 93 95 98 101 102 103 105 107 108 109 110
95 94 92 91 90 89 87 85 84 83 82 81 80 79 79 80 80 80 81 81 79 77 77 79 80 79 78 79 78 78 78 78 78 78 79 80 81 81 83 85 85 85 86 87 89 90 92 91 89 89 90 91 92 94 97 99 101 102 104 105 107 108 109
93 92 90 88 87 87 86 85 84 83 82 80 78 76 76 75 76 77 78 78 76 74 76 78 77 75 75 75 75 75 75 74 74 74 74 76 77 78 80 83 83 83 83 85 86 88 90 90 89 89 90 91 91 93 95 97 99 101 102 103 105 107 107
91 90 89 87 85 84 83 83 83 83 81 79 77 75 73 72 72 74 75 75 74 73 75 75 74 72 72 72 72 72 72 71 71 70 71 73 74 75 78 80 80 80 81 82 84 86 89 89 89 89 90 90 90 91 94 96 98 99 100 102 104 105 105
90 89 88 86 83 81 80 80 81 81 80 78 77 74 71 69 69 72 73 73 73 72 73 73 71 70 70 70 70 70 69 68 68 68 69 70 72 73 75 76 77 77 78 80 82 84 87 88 89 89 89 89 89 90 93 95 96 97 98 99 101 102 102
88 88 86 84 81 78 78 78 79 78 77 77 76 73 69 66 67 70 71 72 72 71 71 70 68 68 69 68 67 67 66 66 66 66 67 68 69 70 71 73 73 74 76 78 80 82 85 87 88 89 89 88 88 89 92 94 95 95 96 97 98 99 99
85 84 82 80 78 75 75 76 76 75 74 74 74 71 68 66 67 69 69 69 70 70 69 67 66 66 67 66 64 64 63 63 63 64 65 66 66 67 69 70 71 72 74 75 78 80 83 86 87 88 87 85 85 87 91 93 94 94 94 95 95 94 95
80 79 78 77 75 73 72 74 73 72 72 71 70 68 66 66 66 66 67 67 69 68 66 64 64 64 64 62 61 61 60 60 61 62 63 63 64 65 66 67 68 70 72 74 77 80 83 85 86 85 83 81 82 86 90 91 91 92 93 93 92 92 93
76 75 73 73 72 71 70 70 70 69 68 68 66 65 64 64 63 64 64 65 66 66 63 61 62 62 61 60 59 58 58 59 59 60 61 61 62 63 64 65 67 69 71 74 77 80 83 83 82 81 79 78 81 85 88 89 89 90 91 91 90 90 91
73 72 70 69 69 68 67 67 67 66 65 65 63 62 61 61 60 61 62 63 64 63 61 59 59 59 58 57 57 57 57 57 58 59 59 59 60 61 62 64 66 68 71 74 76 79 80 79 78 77 76 76 80 84 86 87 89 89 90 90 89 89 89
70 69 69 66 65 64 63 63 64 62 61 61 59 58 58 58 58 58 59 60 61 60 58 56 56 56 56 55 55 55 55 56 56 57 58 58 59 60 62 64 66 67 69 72 74 76 76 75 75 75 75 76 79 83 85 87 88 88 88 88 88 88 88
65 65 66 64 61 59 59 60 61 59 57 57 56 55 55 55 55 56 57 58 58 57 55 53 53 54 54 53 53 53 53 54 55 56 57 57 58 60 62 64 64 65 67 69 71 73 73 73 73 74 75 76 80 83 85 87 88 86 86 88 87 86 86
61 62 63 60 56 56 56 57 58 56 54 54 53 52 53 52 53 54 54 55 55 54 53 52 51 51 51 50 51 52 52 53 54 55 55 56 58 60 62 61 60 62 65 68 69 70 70 70 71 73 74 76 80 83 85 86 86 85 86 87 86 85 85
59 59 58 55 53 53 53 54 54 52 50 51 50 50 50 50 50 51 52 52 52 52 51 50 48 47 48 49 50 50 50 51 53 54 55 56 58 59 58 57 59 62 65 66 67 66 66 67 69 71 73 76 79 82 84 84 83 84 85 85 84 84 84
57 56 54 52 51 52 51 51 51 49 48 48 47 47 48 49 48 48 49 49 50 50 49 46 44 45 48 49 49 49 49 51 53 54 55 56 57 56 55 56 59 62 63 63 64 64 64 65 67 70 72 76 79 81 82 82 82 83 83 82 81 82 82
54 53 52 50 50 50 49 48 48 47 47 46 45 45 46 47 46 46 46 47 47 47 45 43 43 46 48 48 48 48 49 51 52 53 55 55 54 54 55 57 59 60 61 61 62 62 63 64 67 70 73 77 79 80 81 81 81 81 80 79 79 80 81
52 51 50 49 48 48 47 46 46 46 45 44 43 43 44 45 45 44 44 44 44 44 43 43 43 45 46 47 47 48 49 50 52 53 54 53 52 53 55 57 57 58 59 60 60 61 63 65 68 72 75 77 79 79 79 78 78 77 77 78 80 80 81
50 50 49 47 47 46 45 45 45 44 43 42 41 42 43 43 42 41 41 42 42 42 42 42 42 43 45 46 47 47 48 50 52 53 52 51 51 52 54 55 56 57 58 58 60 62 64 67 70 73 75 76 76 76 76 76 75 76 77 79 81 81 82
48 48 47 45 44 44 44 44 43 42 41 41 40 40 41 40 39 39 39 40 40 40 40 41 41 42 44 46 46 47 48 49 51 50 49 49 50 52 54 55 56 56 57 59 61 64 66 68 70 71 72 72 72 73 74 75 75 76 78 80 81 81 81
47 45 44 43 42 42 42 42 41 40 39 39 39 39 38 38 37 37 38 38 39 40 40 40 41 42 44 46 46 46 47 48 48 47 47 48 49 51 54 55 56 57 59 61 63 65 66 66 66 67 68 69 71 73 74 75 76 76 78 79 80 80 80
45 43 41 42 41 40 40 39 38 38 38 37 37 37 36 37 36 36 36 38 39 39 39 40 41 43 44 45 45 45 45 46 46 46 47 48 49 52 54 55 56 58 60 61 63 63 63 63 64 65 67 69 71 73 74 75 75 75 77 78 78 79 79
42 41 39 39 39 38 38 37 36 36 35 35 35 35 35 35 35 35 36 37 38 39 39 40 42 42 43 43 43 43 44 45 45 46 47 48 50 52 54 55 57 59 60 61 62 62 62 63 64 66 68 70 72 72 73 73 73 74 75 76 76 77 78
40 40 38 38 37 36 36 35 35 34 34 34 34 34 34 34 33 34 35 36 37 38 38 40 41 41 41 41 42 42 44 44 45 46 47 49 51 52 53 56 58 60 61 61 62 62 62 64 65 67 68 69 70 71 71 71 71 72 74 75 75 76 77
39 38 37 36 35 34 34 33 33 33 33 33 33 32 32 32 32 33 34 35 36 37 38 39 40 40 40 40 40 41 42 43 44 45 47 49 51 52 54 56 58 59 60 61 61 61 61 63 64 65 67 67 68 68 69 69 69 71 72 74 74 75 76
37 36 35 35 34 33 32 32 32 32 32 32 32 31 31 31 31 32 33 34 35 36 37 38 39 39 39 38 39 40 41 42 43 45 47 48 49 52 54 56 57 58 59 59 59 59 59 61 62 63 64 64 65 65 66 67 68 70 72 73 73 74 75
36 35 34 33 32 31 31 30 30 30 30 30 30 29 29 29 30 30 32 33 34 35 36 37 38 38 37 38 38 39 40 41 43 45 46 47 48 50 52 53 54 55 55 55 55 55 57 58 59 60 61 61 62 63 64 66 68 69 70 72 73 73 74
34 33 32 32 31 30 29 28 28 28 28 28 28 28 28 28 29 29 31 32 32 34 35 36 37 37 37 38 39 40 41 42 43 44 45 47 48 49 49 50 50 51 51 51 52 53 55 57 58 59 60 60 62 63 64 65 67 68 69 71 72 73 73
32 32 31 30 29 28 27 27 27 27 27 27 27 27 28 28 28 29 30 31 32 33 34 35 36 37 37 38 40 41 42 42 43 44 44 45 46 47 47 48 48 48 49 50 51 53 55 57 58 59 60 61 62 63 63 64 65 67 68 70 71 72 72
31 30 30 29 27 27 26 26 26 26 26 26 27 27 27 28 28 29 30 31 32 33 34 35 35 36 37 38 40 41 42 42 42 43 43 44 45 45 46 46 47 48 49 51 53 55 56 57 58 58 59 60 61 61 62 63 64 66 67 69 70 70 71
Wind_Direction
285 284 283 282 281 280 279 278 278 277 276 275 274 272 271 270 270 269 268 267 266 265 263 262 261 262 262 261 261 261 260 260 259 258 257 256 255 254 253 252 251 250 249 250 250 249 248 246 245 244 244 244 243 242 241 240 239 238 237 237 236 236 236
286 285 284 283 283 282 281 279 278 276 275 274 273 271 270 270 269 268 268 267 266 265 265 263 262 261 261 261 261 261 261 260 259 259 258 256 255 254 252 251 250 249 248 248 249 249 247 246 244 243 243 242 242 241 240 240 238 237 236 236 235 235 235
288 287 286 285 284 282 281 280 278 276 275 273 272 271 270 269 268 267 266 266 266 265 265 264 263 261 261 261 261 261 261 260 259 259 258 257 255 254 252 250 248 247 247 247 248 248 247 245 244 242 242 241 240 240 239 239 238 237 235 235 234 234 234
289 288 287 286 284 283 281 280 278 277 276 274 273 271 270 268 267 266 266 265 265 265 265 265 263 262 261 261 260 259 259 259 259 258 257 256 255 253 252 250 248 246 246 245 247 247 246 244 243 242 241 240 239 239 238 237 237 236 235 234 233 233 233
289 288 287 286 285 283 282 281 279 278 276 275 273 272 270 269 268 266 266 265 265 265 265 264 263 262 262 261 260 259 258 257 257 257 256 255 254 253 251 250 248 246 245 245 245 246 245 244 242 240 240 239 238 237 237 236 236 235 234 233 232 231 231
289 289 288 287 286 285 283 282 281 280 278 276 274 272 270 269 268 268 267 266 266 265 265 263 262 262 261 261 260 258 257 256 256 255 254 253 252 251 250 249 248 246 245 244 244 244 244 243 241 239 238 238 237 236 236 235 235 234 233 232 231 230 230
290 290 289 288 287 286 285 284 282 280 278 276 274 272 271 270 269 269 268 268 267 266 264 263 262 261 261 260 259 257 256 255 254 253 253 252 251 250 249 248 247 246 244 243 243 243 243 242 240 238 237 236 236 235 235 234 234 233 232 231 230 229 229
291 290 290 289 288 287 286 284 282 280 278 276 274 272 271 270 269 269 269 268 267 266 264 263 262 261 260 260 258 257 256 254 253 252 251 250 249 248 248 247 245 244 243 242 241 241 242 240 238 237 236 235 234 234 234 233 233 232 231 230 229 229 228
291 291 290 289 289 288 286 284 282 280 278 275 273 272 271 270 270 270 269 268 267 266 264 263 262 261 260 259 258 257 255 254 252 251 249 248 247 246 245 245 244 242 241 241 240 240 240 239 237 236 235 234 233 233 233 233 232 231 231 230 229 228 227
291 291 289 288 288 287 286 284 283 280 278 276 274 272 272 271 271 270 269 268 268 266 264 262 262 261 259 258 257 256 255 253 251 249 248 247 245 244 244 243 242 241 240 239 239 238 238 238 237 235 234 233 232 232 232 232 232 231 230 229 229 228 227
291 290 289 288 287 286 285 284 283 281 279 277 276 274 273 273 272 270 269 268 267 265 263 262 262 261 259 258 256 255 254 252 250 248 246 245 244 243 242 242 241 240 239 238 237 237 237 237 236 234 233 232 231 231 232 232 231 231 230 229 229 228 227
291 290 289 288 287 286 285 283 282 280 280 279 278 276 275 273 272 270 269 267 266 264 263 262 261 260 258 257 255 254 253 251 249 247 245 244 243 242 241 241 241 239 238 237 236 236 236 235 235 234 232 231 231 230 231 231 231 231 230 229 229 228 226
291 290 289 288 287 286 284 283 281 280 280 279 278 277 276 274 271 269 267 266 265 263 262 261 260 258 257 255 254 253 251 250 248 246 245 243 242 241 240 240 239 237 236 235 235 235 235 234 233 233 231 230 230 230 231 231 231 230 230 229 229 227 226
290 290 289 288 286 285 284 282 281 280 279 278 277 277 275 273 270 267 266 265 263 262 260 259 258 257 256 254 253 252 250 249 247 246 244 243 242 241 240 238 237 236 235 234 233 233 233 233 233 232 231 230 229 229 230 231 230 230 230 230 229 227 226
291 290 289 287 286 285 283 282 280 279 278 277 276 275 273 270 268 266 265 263 262 261 259 258 257 255 255 253 252 250 249 247 246 245 244 243 241 240 239 238 236 235 234 233 232 232 232 232 232 231 230 229 229 229 230 230 230 230 229 229 228 227 226
291 289 288 287 285 284 282 281 279 278 277 275 274 272 270 268 266 265 263 261 260 259 258 256 255 254 253 252 251 249 248 246 245 244 243 242 240 239 238 237 235 234 232 231 231 231 231 231 231 230 229 228 228 229 229 230 230 229 229 229 228 226 225
290 289 287 285 284 282 281 279 278 276 275 273 272 270 269 267 265 263 261 260 259 258 257 255 254 253 252 250 249 248 246 245 244 243 241 240 239 238 237 235 234 232 231 231 231 231 231 231 230 229 228 226 226 228 228 229 229 228 228 228 227 226 225
289 288 286 284 282 281 280 278 276 274 273 272 271 269 267 265 263 261 260 259 258 257 256 254 253 252 250 249 247 246 245 244 242 242 240 239 237 236 235 234 232 231 231 231 231 231 231 230 229 228 226 225 225 226 227 227 227 227 227 227 227 225 224
289 288 285 283 282 281 279 277 275 274 273 271 270 267 265 263 262 260 259 258 257 256 255 253 251 250 249 248 246 245 243 242 241 240 239 237 236 235 234 233 232 231 231 232 231 231 230 229 228 227 225 223 223 224 225 226 226 226 226 226 226 225 224
289 287 285 284 283 281 278 276 275 274 273 271 269 267 264 262 261 259 257 256 256 255 254 252 250 249 249 247 245 243 241 240 239 238 237 236 235 234 233 232 231 231 231 231 230 230 230 229 227 226 224 223 223 223 224 224 224 224 225 225 225 224 224
289 287 285 285 283 280 278 276 275 274 272 270 268 266 264 262 260 258 257 256 255 254 252 251 250 249 247 245 243 241 239 237 237 236 235 234 234 233 233 232 231 230 230 230 229 229 228 228 227 226 224 223 223 223 224 224 223 223 224 224 224 224 223
290 288 286 285 283 281 278 277 276 274 272 269 267 265 263 262 259 258 256 255 254 253 252 250 248 246 244 242 240 238 237 236 236 235 234 234 233 233 232 231 230 229 229 229 228 227 226 225 225 224 223 223 223 223 223 223 223 223 223 223 223 223 223
291 289 288 286 283 281 279 277 275 274 271 269 267 265 263 261 259 257 256 254 253 252 251 248 244 243 242 241 239 236 235 235 234 234 234 233 233 231 230 230 229 229 228 228 227 226 224 223 223 223 222 222 222 222 222 222 222 222 222 222 223 223 223
292 290 288 286 284 281 280 277 275 272 271 268 267 264 262 261 259 257 256 254 253 251 249 246 243 242 242 241 238 235 234 234 234 234 234 233 231 230 229 229 228 228 227 226 225 224 223 221 221 221 221 222 222 222 222 222 221 221 221 221 222 222 222
293 290 288 286 284 282 279 277 274 272 270 268 266 264 262 261 259 258 256 254 252 249 247 245 243 241 240 239 237 235 234 234 234 234 233 232 230 228 228 227 227 226 224 223 223 222 221 220 219 220 220 221 222 222 222 221 221 220 220 221 221 221 221
293 290 288 286 284 281 279 276 274 272 270 267 265 262 261 260 258 257 255 252 250 247 245 243 240 239 238 237 236 234 233 234 234 234 232 230 228 227 226 225 224 223 222 221 220 220 220 219 219 219 220 221 222 222 221 221 220 219 220 220 221 221 221
292 289 288 286 283 281 278 276 274 272 269 266 264 261 260 258 256 254 252 250 247 245 242 240 238 237 236 235 235 234 233 233 234 233 231 228 226 225 224 222 221 220 219 219 219 219 219 219 219 219 220 220 221 221 221 221 220 220 220 221 221 221 221
291 289 288 285 282 279 277 275 273 270 268 265 263 260 258 256 253 251 249 247 244 242 240 238 236 235 235 234 234 233 233 233 232 230 228 225 223 222 221 220 219 219 218 218 218 218 218 218 218 218 218 219 220 220 221 220 220 220 221 221 221 221 221
291 289 287 283 281 278 275 273 271 268 266 263 261 258 256 254 251 248 246 244 242 240 239 237 236 235 234 234 233 232 232 231 229 228 225 223 221 220 219 218 217 217 217 217 217 216 216 216 216 216 217 218 219 220 220 220 220 220 221 222 221 221 221
291 289 287 284 281 278 275 272 269 266 263 260 258 256 254 252 250 247 244 242 240 238 237 236 236 235 234 233 232 231 230 228 227 225 223 220 219 218 217 217 216 216 216 216 216 215 214 214 215 216 216 217 218 219 220 220 220 220 221 221 221 221 220
291 289 287 284 281 278 275 272 269 265 262 259 256 254 252 250 248 245 243 240 238 236 235 235 235 234 233 232 231 230 228 227 225 223 221 220 218 216 215 216 216 216 216 215 215 215 214 215 215 216 217 218 218 219 220 220 220 220 221 221 221 220 220
291 289 287 284 281 278 275 271 268 265 262 259 256 253 251 249 247 245 242 240 237 236 235 234 234 233 232 231 229 228 226 224 223 221 220 219 218 217 216 216 216 216 216 215 215 214 214 215 216 217 218 218 219 219 219 219 219 220 220 221 221 220 220
291 289 287 284 280 277 275 272 268 265 262 259 256 253 250 248 246 244 241 239 237 235 234 233 232 231 229 227 226 224 222 221 220 220 218 217 217 217 218 217 217 216 216 216 215 215 215 215 216 217 218 218 219 219 219 219 219 219 220 220 220 220 219
291 290 287 284 280 277 275 271 267 263 260 256 253 250 248 245 243 241 239 237 235 234 233 233 231 229 226 224 222 221 219 218 218 218 217 216 215 215 216 217 217 217 216 215 214 214 215 215 216 216 217 217 218 218 218 218 218 219 219 219 220 220 219
292 290 287 283 279 277 274 270 265 260 257 253 250 248 245 242 240 238 236 234 232 231 231 231 230 228 225 222 221 219 218 217 216 216 216 215 215 214 214 214 214 214 214 213 213 213 214 215 215 215 215 216 216 217 217 217 217 217 218 219 219 219 219
291 290 287 282 279 275 272 268 263 258 254 250 247 245 243 240 238 236 234 232 230 229 229 228 227 225 223 221 219 219 218 216 215 215 215 214 214 213 213 212 211 211 211 211 212 212 213 214 214 214 215 215 215 216 216 216 216 217 217 218 218 218 218
Height
10048 10043 10040 10037 10033 10029 10026 10024 10021 10018 10013 10011 10010 10008 10004 10001 9997 9993 9992 9991 9991 9991 9992 9997 10000 9997 9993 9991 9993 9997 10001 10004 10006 10009 10014 10020 10025 10029 10034 10038 10043 10053 10055 10044 10041 10053 10063 10073 10083 10090 10096 10102 10109 10117 10125 10132 10138 10144 10152 10160 10167 10176 10185
10026 10022 10018 10016 10013 10009 10007 10004 10002 9999 9995 9992 9990 9989 9986 9983 9978 9974 9972 9971 9971 9971 9972 9978 9982 9978 9974 9972 9976 9980 9982 9984 9987 9989 9995 10001 10006 10011 10015 10018 10024 10031 10034 10028 10024 10032 10044 10054 10064 10073 10078 10083 10091 10099 10106 10113 10119 10126 10134 10142 10150 10159 10167
10004 10001 9999 9996 9993 9990 9987 9985 9982 9979 9976 9973 9971 9969 9967 9964 9959 9956 9954 9952 9952 9952 9954 9959 9962 9958 9955 9955 9960 9964 9964 9965 9968 9971 9977 9982 9987 9992 9995 9998 10005 10011 10015 10014 10009 10011 10024 10036 10046 10055 10060 10066 10074 10081 10088 10095 10100 10107 10116 10125 10133 10142 10149
9983 9980 9979 9976 9973 9970 9967 9965 9962 9960 9957 9954 9951 9948 9947 9945 9941 9937 9936 9934 9934 9936 9938 9941 9941 9938 9935 9938 9944 9947 9946 9946 9950 9953 9959 9964 9968 9973 9976 9979 9986 9992 9997 9998 9995 9995 10005 10018 10029 10038 10043 10049 10057 10064 10070 10077 10082 10089 10099 10108 10117 10125 10132
9965 9962 9959 9956 9952 9949 9947 9945 9942 9941 9939 9935 9931 9928 9927 9925 9922 9919 9918 9917 9918 9920 9922 9923 9921 9918 9918 9921 9927 9930 9928 9929 9933 9937 9942 9947 9951 9954 9958 9962 9968 9975 9979 9982 9982 9981 9987 10000 10012 10021 10027 10032 10040 10047 10053 10059 10064 10072 10082 10091 10099 10107 10115
9948 9944 9940 9937 9932 9928 9926 9925 9923 9921 9919 9916 9912 9909 9907 9906 9904 9902 9901 9901 9902 9904 9906 9905 9903 9901 9901 9905 9910 9911 9911 9912 9917 9921 9925 9930 9933 9936 9940 9945 9951 9957 9962 9967 9968 9966 9970 9984 9997 10004 10011 10017 10023 10030 10036 10040 10047 10056 10065 10073 10081 10090 10099
9931 9926 9920 9916 9913 9910 9906 9905 9904 9901 9899 9897 9894 9891 9889 9888 9887 9885 9884 9884 9886 9888 9889 9887 9885 9885 9886 9889 9892 9894 9895 9897 9901 9905 9909 9913 9917 9920 9924 9930 9935 9940 9946 9951 9953 9952 9957 9969 9980 9988 9995 10001 10008 10015 10019 10022 10030 10040 10047 10055 10065 10074 10084
9913 9908 9903 9897 9893 9890 9888 9886 9884 9882 9879 9879 9877 9874 9873 9872 9871 9870 9868 9868 9869 9871 9871 9870 9869 9870 9871 9873 9876 9878 9879 9883 9886 9890 9894 9898 9901 9905 9909 9914 9919 9924 9930 9934 9937 9939 9943 9953 9965 9973 9980 9986 9993 9998 10001 10006 10015 10023 10030 10039 10049 10059 10069
9893 9889 9886 9882 9877 9872 9869 9868 9865 9863 9860 9860 9859 9858 9857 9856 9856 9854 9852 9852 9853 9855 9854 9852 9853 9855 9856 9857 9860 9863 9865 9868 9871 9875 9879 9882 9886 9891 9894 9898 9902 9908 9915 9919 9923 9926 9930 9938 9950 9959 9964 9971 9977 9981 9986 9993 10000 10006 10014 10025 10034 10043 10054
9876 9871 9867 9866 9863 9858 9852 9849 9846 9843 9841 9841 9841 9842 9842 9841 9840 9839 9837 9836 9838 9838 9837 9836 9838 9840 9842 9843 9846 9848 9851 9853 9856 9861 9865 9867 9872 9877 9880 9883 9887 9894 9900 9904 9909 9913 9916 9925 9936 9943 9948 9955 9962 9968 9973 9979 9984 9990 10000 10011 10018 10028 10039
9858 9854 9849 9846 9846 9843 9839 9833 9828 9824 9822 9822 9823 9825 9827 9827 9825 9823 9822 9821 9822 9822 9821 9821 9824 9827 9828 9830 9832 9834 9836 9839 9843 9847 9851 9854 9859 9863 9866 9869 9874 9880 9885 9890 9895 9899 9903 9912 9921 9927 9933 9941 9949 9956 9960 9963 9970 9977 9986 9995 10003 10013 10025
9841 9837 9832 9828 9828 9826 9823 9818 9812 9807 9806 9806 9806 9808 9810 9813 9812 9808 9807 9806 9806 9807 9807 9808 9811 9813 9814 9816 9819 9821 9824 9827 9830 9834 9838 9841 9845 9850 9853 9856 9861 9866 9872 9876 9881 9885 9891 9898 9905 9910 9918 9928 9936 9943 9946 9950 9957 9964 9972 9981 9989 10000 10012
9825 9820 9815 9812 9811 9810 9807 9802 9797 9794 9793 9792 9790 9792 9795 9798 9797 9794 9791 9791 9791 9793 9794 9795 9798 9800 9801 9803 9806 9809 9812 9815 9818 9822 9826 9829 9833 9837 9840 9844 9848 9853 9858 9863 9869 9873 9878 9884 9889 9895 9905 9915 9924 9931 9934 9938 9944 9951 9959 9967 9976 9988 10000
9810 9805 9799 9796 9795 9795 9792 9787 9782 9781 9780 9778 9777 9779 9781 9783 9782 9779 9778 9777 9777 9778 9781 9783 9785 9787 9788 9791 9795 9798 9801 9804 9807 9811 9814 9818 9822 9825 9828 9832 9837 9841 9846 9852 9857 9861 9864 9868 9874 9882 9893 9905 9915 9920 9921 9924 9931 9940 9947 9955 9965 9978 9987
9795 9790 9786 9782 9780 9780 9778 9773 9769 9768 9767 9765 9766 9767 9768 9768 9767 9765 9765 9764 9764 9765 9769 9772 9773 9774 9777 9780 9783 9787 9790 9793 9796 9800 9804 9807 9811 9814 9817 9822 9826 9830 9834 9839 9843 9846 9849 9854 9861 9872 9884 9897 9905 9908 9908 9912 9921 9929 9936 9943 9955 9966 9973
9780 9776 9774 9770 9766 9766 9765 9759 9756 9756 9755 9753 9754 9754 9754 9754 9754 9753 9752 9752 9751 9753 9758 9761 9762 9764 9767 9770 9773 9776 9780 9783 9786 9789 9793 9797 9800 9803 9807 9811 9815 9818 9822 9826 9829 9832 9836 9844 9854 9864 9876 9887 9893 9894 9896 9903 9911 9918 9924 9932 9943 9953 9960
9766 9762 9761 9759 9755 9752 9752 9747 9743 9743 9743 9741 9741 9742 9741 9741 9741 9740 9740 9740 9740 9742 9746 9750 9752 9753 9757 9760 9763 9766 9769 9773 9776 9779 9782 9786 9790 9793 9796 9799 9802 9806 9811 9815 9818 9823 9829 9838 9848 9856 9866 9875 9879 9880 9885 9893 9898 9905 9913 9922 9931 9940 9947
9755 9750 9746 9745 9743 9740 9739 9735 9731 9731 9731 9729 9729 9730 9729 9728 9729 9729 9728 9729 9730 9732 9736 9740 9742 9744 9746 9750 9753 9756 9760 9763 9766 9769 9772 9776 9779 9782 9784 9786 9791 9796 9801 9806 9810 9815 9822 9831 9839 9846 9855 9863 9866 9868 9875 9880 9885 9893 9903 9911 9919 9927 9935
9744 9739 9731 9730 9731 9729 9726 9722 9718 9719 9720 9718 9717 9718 9717 9717 9717 9718 9718 9718 9719 9722 9726 9730 9732 9734 9737 9741 9744 9747 9751 9754 9756 9759 9762 9765 9768 9771 9772 9776 9783 9790 9794 9798 9801 9806 9813 9822 9829 9836 9844 9850 9853 9856 9862 9867 9874 9885 9893 9899 9907 9917 9924
9731 9725 9719 9718 9719 9717 9714 9710 9707 9708 9709 9707 9707 9707 9706 9706 9707 9707 9707 9709 9710 9713 9717 9720 9723 9726 9729 9732 9735 9738 9742 9745 9746 9749 9752 9755 9758 9759 9762 9770 9778 9783 9784 9787 9792 9798 9806 9815 9821 9827 9833 9838 9841 9845 9850 9856 9865 9876 9882 9888 9898 9906 9914
9717 9712 9708 9708 9707 9704 9702 9699 9697 9697 9698 9696 9696 9696 9695 9695 9696 9697 9698 9699 9701 9704 9707 9711 9715 9718 9720 9723 9725 9729 9732 9735 9736 9739 9742 9745 9747 9750 9758 9766 9771 9772 9774 9779 9785 9793 9801 9808 9813 9818 9823 9827 9831 9835 9841 9848 9858 9866 9872 9880 9889 9897 9904
9703 9700 9698 9697 9695 9692 9690 9689 9687 9686 9686 9686 9686 9686 9685 9685 9686 9688 9689 9691 9693 9695 9698 9704 9708 9709 9710 9712 9716 9720 9723 9725 9727 9729 9732 9735 9739 9746 9754 9758 9759 9761 9767 9773 9779 9786 9793 9799 9804 9809 9813 9817 9821 9826 9832 9841 9850 9857 9865 9874 9882 9889 9896
9692 9689 9687 9686 9683 9680 9679 9678 9677 9676 9676 9676 9676 9676 9675 9676 9677 9679 9681 9682 9684 9687 9691 9696 9699 9699 9700 9704 9707 9711 9714 9716 9718 9720 9723 9728 9734 9741 9745 9747 9750 9756 9761 9765 9771 9778 9784 9790 9794 9798 9802 9805 9810 9815 9822 9831 9841 9850 9859 9869 9875 9880 9887
9681 9679 9676 9674 9672 9670 9669 9668 9666 9666 9666 9666 9667 9667 9666 9667 9669 9671 9673 9675 9677 9680 9683 9686 9690 9691 9693 9695 9699 9702 9705 9707 9709 9712 9716 9722 9728 9733 9736 9739 9744 9748 9753 9758 9764 9770 9775 9779 9783 9786 9789 9793 9799 9806 9815 9825 9836 9846 9855 9861 9865 9869 9876
9670 9668 9665 9664 9662 9660 9659 9658 9657 9657 9657 9658 9659 9659 9658 9659 9661 9664 9666 9668 9670 9673 9676 9678 9681 9683 9684 9686 9689 9693 9696 9698 9700 9704 9709 9715 9721 9725 9728 9731 9735 9740 9745 9750 9755 9759 9762 9767 9771 9775 9779 9785 9793 9803 9812 9821 9830 9839 9845 9849 9852 9858 9865
9661 9658 9656 9655 9654 9651 9650 9649 9649 9649 9650 9650 9650 9651 9650 9652 9654 9656 9658 9660 9662 9665 9668 9670 9672 9674 9676 9678 9681 9684 9687 9690 9693 9697 9703 9709 9713 9716 9719 9723 9727 9732 9736 9740 9744 9747 9751 9756 9762 9768 9775 9783 9791 9798 9805 9813 9821 9828 9833 9837 9842 9849 9856
9651 9649 9647 9646 9645 9643 9641 9641 9642 9641 9642 9642 9643 9643 9644 9645 9647 9649 9650 9652 9654 9656 9659 9662 9664 9666 9667 9669 9672 9676 9679 9683 9687 9692 9697 9701 9705 9707 9710 9714 9719 9723 9726 9730 9734 9738 9743 9750 9758 9766 9773 9780 9785 9791 9797 9804 9812 9819 9823 9827 9834 9842 9849
9642 9641 9640 9637 9636 9635 9634 9634 9634 9634 9635 9635 9635 9636 9637 9638 9640 9642 9643 9644 9646 9648 9651 9653 9655 9657 9659 9662 9665 9669 9673 9676 9680 9684 9688 9692 9696 9699 9702 9707 9711 9714 9718 9722 9727 9733 9740 9747 9754 9761 9767 9771 9776 9782 9788 9796 9804 9810 9815 9820 9828 9835 9842
9634 9632 9632 9629 9628 9628 9626 9626 9627 9627 9627 9628 9628 9629 9630 9631 9633 9635 9636 9637 9638 9641 9643 9645 9647 9650 9653 9656 9660 9663 9666 9670 9673 9677 9681 9684 9687 9691 9695 9700 9703 9706 9710 9715 9721 9727 9734 9741 9747 9752 9757 9762 9768 9775 9782 9789 9797 9803 9808 9814 9821 9827 9834
9626 9624 9623 9622 9621 9621 9620 9619 9620 9620 9620 9621 9621 9622 9624 9625 9627 9628 9629 9630 9632 9634 9637 9638 9641 9644 9647 9650 9654 9657 9660 9663 9667 9670 9674 9676 9680 9684 9688 9692 9695 9699 9704 9709 9715 9721 9727 9733 9739 9744 9750 9756 9762 9769 9776 9783 9791 9797 9801 9806 9813 9820 9827
9619 9617 9616 9615 9614 9614 9613 9613 9613 9613 9614 9614 9615 9616 9617 9619 9620 9622 9623 9624 9626 9628 9630 9632 9635 9638 9641 9644 9648 9651 9654 9658 9661 9664 9667 9670 9673 9677 9681 9684 9688 9693 9699 9704 9710 9717 9723 9728 9733 9739 9744 9751 9757 9763 9770 9778 9784 9789 9793 9798 9805 9812 9820
9611 9610 9609 9608 9608 9607 9606 9606 9606 9607 9608 9608 9609 9610 9611 9613 9614 9616 9617 9619 9620 9622 9625 9627 9629 9632 9636 9639 9642 9645 9649 9652 9655 9657 9660 9664 9668 9672 9675 9678 9683 9689 9694 9700 9707 9713 9719 9725 9730 9735 9741 9747 9753 9759 9765 9772 9777 9781 9786 9791 9798 9805 9812
9604 9603 9603 9602 9601 9600 9600 9600 9600 9601 9602 9603 9604 9605 9606 9607 9609 9610 9612 9613 9615 9617 9619 9621 9624 9627 9631 9634 9636 9639 9643 9646 9648 9651 9655 9659 9663 9667 9671 9676 9681 9686 9692 9698 9705 9711 9716 9721 9726 9731 9737 9743 9748 9753 9759 9764 9769 9774 9780 9785 9791 9798 9805
9598 9597 9596 9595 9594 9594 9594 9594 9594 9595 9596 9597 9598 9599 9600 9602 9603 9604 9606 9608 9610 9612 9614 9616 9619 9622 9625 9628 9630 9633 9637 9640 9643 9646 9650 9654 9658 9663 9668 9674 9680 9685 9691 9697 9703 9708 9712 9717 9721 9727 9732 9737 9741 9747 9752 9758 9763 9768 9774 9779 9785 9791 9798
9592 9590 9590 9589 9588 9588 9588 9588 9588 9589 9589 9590 9592 9593 9594 9596 9597 9599 9600 9602 9605 9607 9609 9611 9614 9617 9620 9623 9625 9628 9631 9635 9638 9642 9646 9650 9655 9660 9665 9671 9677 9683 9688 9693 9698 9702 9706 9711 9716 9721 9726 9730 9735 9740 9746 9751 9757 9762 9768 9773 9779 9785 9793
9585 9584 9584 9583 9582 9582 9582 9582 9582 9583 9583 9584 9586 9587 9589 9590 9592 9593 9595 9597 9599 9601 9603 9606 9609 9612 9615 9618 9621 9623 9627 9630 9634 9638 9642 9647 9652 9657 9662 9668 9673 9678 9683 9687 9692 9696 9700 9705 9710 9715 9720 9725 9730 9735 9741 9746 9751 9757 9762 9767 9773 9779 9786